Terminal Aerodrome Forecast
Issued by NWS

Home | Current Version | Previous Version | Text Only | Print | Product List | Glossary On
Versions: 1 2 3 4 5 6 7 8 9 10 11 12
535
FTPA31 PHFO 101732
TAFSTU
TAF
NSTU 101732Z 1018/1118 10011KT P6SM SCT020 SCT100 BKN200
      AMD NOT SKED=

USA.gov is the U.S. government's official web portal to all federal, state and local government web resources and services.